FLYING LAPTOP (42831 NORAD) Tracking and Keplerian Element Data

This shows tracking and keplerian element data for the satellite.

Feedback or suggestion? Click here.




ElementValue
Catalog42831
NameFLYING LAPTOP
Epoch Orbit22865
Epoch Day268.8704632
Epoch Year2021
RAAN133.2492
Inclination97.4544
Eccentricity0.0014057
Argument of Perigee165.4494
Mean Anonmoly194.711
Mean Motion14.91354638
Decay Rate4.53E-06
L11 42831U 17042G 21268.87046320 .00000453 00000-0 50526-4 0 9995
L22 42831 97.4544 133.2492 0014057 165.4494 194.7110 14.91354638228657

Live tracking and technical data element details for FLYING LAPTOP (NORAD 42831). FLYING LAPTOP can be tracked NOW for your location showing map with azimuth and elevation plus other details from your city location.

Track the satellite on the map from your city or location and see movement details for azimuth, elevation, latitude, longitude, range, height, and movement on the map or in text.







IsCatalogInMostPopularTable: catalog: 42831, numindb: 587
Update: records affected: 1



GetName: 42831 FLYING LAPTOP

Hit Count: updated at: Mon, 27 Sep 2021 01:07:03 GMT